Simultaneous Nadir Overpasses (SNOs) Predictions

Prediction of SNOs between GOES-16 and METOP-C Satellite Orbit:

Table of predicted SNOs for the next 14.0 days since TLE Epoch: 11/20/2021
Index Date Time (GOES-16) GOES-16 Lat,Lon METOP-C Lat,Lon Distance(km) Time Diff (sec)
1 11/22/2021 14:31:40 -0.03, -75.21 -0.11, -74.81 45.28 80
2 11/24/2021 02:50:39 0.03, -75.19 -0.93, -79.39 479.86 80
3 11/25/2021 02:27:21 0.03, -75.19 0.22, -74.41 89.83 80
4 11/26/2021 14:46:14 -0.02, -75.22 0.79, -78.97 426.67 80
5 11/27/2021 14:28:15 -0.02, -75.23 -0.31, -73.97 143.44 80
6 11/29/2021 02:47:14 0.02, -75.22 -0.73, -78.56 380.51 80
7 11/30/2021 02:23:55 0.02, -75.23 0.36, -73.56 189.83 80
8 12/01/2021 14:42:48 -0.02, -75.27 0.64, -78.13 325.89 80
9 12/02/2021 14:24:49 -0.02, -75.29 -0.51, -73.14 244.65 80
10 12/04/2021 02:43:49 0.02, -75.28 -0.52, -77.73 278.85 80
